Preview of NWS' New Version of Forecast
This preview is not operational and should not be used for support decisions.

Regional Weather Roundup (RWR)

Issued by National Weather Service (NWS)

                            
000
ASUS44 KJAN 200610
RWRMS 

MISSISSIPPI HOURLY WEATHER ROUNDUP
NATIONAL WEATHER SERVICE JACKSON MS
1200 AM CST WED FEB 20 2019

NOTE: "FAIR: INDICATES FEW OR NO CLOUDS BELOW 12,000 FEET WITH NO
SIGNIFICANT WEATHER AND/OR OBSTRUCTIONS TO VISIBILITY.

MSZ001>002-007>008-010>013-018>021-025>028-034>036-200700-
NORTHWEST MISSISSIPPI
  
CITY           SKY/WX    TMP DP  RH WIND       PRES   REMARKS
BATESVILLE     CLOUDY    48  46  93 SE14G26   29.83F                  
CLARKSDALE     CLOUDY    50  50 100 S3        29.84F                  
CLEVELAND      CLOUDY    50  50 100 S7        29.82F                  
GREENWOOD      CLOUDY    53  50  89 SE16G24   29.85F                  
6HR MIN TEMP:  47; 6HR MAX TEMP:  53; 6HR PCP: TRACE;                

GREENVILLE     LGT RAIN  51  49  92 S12       29.81F                  
6HR MIN TEMP:  47; 6HR MAX TEMP:  51; 6HR PCP: TRACE;                

OLIVE BRANCH   CLOUDY    45 N/A N/A SE13      29.86R FOG              
OXFORD         CLOUDY    46  45  93 SE13G26   29.87F                  
TUNICA         LGT SNOW  43  43 100 NW6       29.85F                  
WINONA         CLOUDY    50  50  99 SE7G18    29.90R                  
$$

MSZ003>006-009-014>017-022>024-029>033-037>039-200700-
NORTHEAST MISSISSIPPI
  
CITY           SKY/WX    TMP DP  RH WIND       PRES   REMARKS
ABERDEEN       DRIZZLE   46  46 100 SE12G17   29.98F                  
COLUMBUS AFB   CLOUDY    48  46  93 SE9       29.98F                  
6HR MIN TEMP:  45; 6HR MAX TEMP:  47; 6HR PCP:  0.10;                

CORINTH        CLOUDY    46  45  93 SE15G22   29.90F                  
GOLDN TRIANGLE   N/A    N/A N/A N/A MISG        N/A                   
STARKVILLE     CLOUDY    46  45  93 SE9G16    29.99S                  
TUPELO         CLOUDY    47  43  86 SE14      29.93F                  
6HR MIN TEMP:  46; 6HR MAX TEMP:  49; 6HR PCP:  0.18;                

$$

MSZ040-058-200700-
CENTRAL MISSISSIPPI
  
CITY           SKY/WX    TMP DP  RH WIND       PRES   REMARKS
JACKSON INTL   CLOUDY    54  52  93 SE13      29.90S FOG              
6HR MIN TEMP:  46; 6HR MAX TEMP:  54; 6HR PCP: TRACE;                

JACKSON HAWKNS CLOUDY    54  54 100 SE14      29.88F FOG              
6HR MIN TEMP:  47; 6HR MAX TEMP:  54;                                

MADISON        CLOUDY    52  52 100 SE3       29.89F                  
MERIDIAN KEY   CLOUDY    55  51  86 CALM      29.97F                  
6HR MIN TEMP:  49; 6HR MAX TEMP:  55; 6HR PCP:  0.10;                

MERIDIAN NAS   CLOUDY    51  50  96 SE7       29.99F                  
6HR MIN TEMP:  48; 6HR MAX TEMP:  51; 6HR PCP:  0.19;                

RAYMOND          N/A     54  54 100 SE14      29.86F                  
VICKSBURG VKS  CLOUDY    55  55 100 SE9G20    29.85F                  
$$

MSZ059>079-200700-
SOUTH MISSISSIPPI
  
CITY           SKY/WX    TMP DP  RH WIND       PRES   REMARKS
HATTIESBURG    FOG       53  53 100 CALM      29.95F VSB 1/4          
6HR MIN TEMP:  51; 6HR MAX TEMP:  53; 6HR PCP:  0.04;                

LAUREL         CLOUDY    55  55 100 SE6       29.95F VSB 1/2          
MCCOMB         LGT RAIN  58  56  93 SE6       29.91S VSB 1/2          
6HR MIN TEMP:  50; 6HR MAX TEMP:  57; 6HR PCP:  0.03;                

NATCHEZ        CLOUDY    59  59 100 S15       29.84F FOG              
6HR MIN TEMP:  49; 6HR MAX TEMP:  59;                                

PINE BELT      LGT RAIN  55  54  96 SE5       29.95F VSB 1/2          
6HR MIN TEMP:  49; 6HR MAX TEMP:  55;                                

$$

MSZ080>082-200700-
COASTAL MISSISSIPPI
  
CITY           SKY/WX    TMP DP  RH WIND       PRES   REMARKS
BILOXI         FOG       68  68 100 SE16      29.95S VSB 5/8          
6HR MIN TEMP:  65; 6HR MAX TEMP:  69;                                

PASCAGOULA     CLOUDY    70  68  93 SE15G22   29.97F FOG              
6HR MIN TEMP:  67; 6HR MAX TEMP:  71;                                

GULFPORT       FOG       67  67 100 SE18      29.94F VSB 1            
6HR MIN TEMP:  65; 6HR MAX TEMP:  68; 6HR PCP:  0.08;                

$$

LAZ007>009-015>016-023>026-200700-
NORTHEAST LOUISIANA
  
CITY           SKY/WX    TMP DP  RH WIND       PRES   REMARKS
BASTROP        TSTM      49  48  98 CALM      29.82S                  
TALLULAH/VBURG CLOUDY    54  53  97 SE13      29.85F                  
6HR MIN TEMP:  48; 6HR MAX TEMP:  54; 6HR PCP: TRACE;                

VIDALIA        CLOUDY    62  61  97 SE14G20   29.82F                  
$$